sat.trackr.live / text

‹ back to catalog

STARLINK-31804

NORAD 59641 · 2024-082L

PAYLOAD ACTIVE UNKNOWN

§ Identity

Operator
Country
US
Launch date
2024-05-03
Launch site
AFETR
Launch vehicle
Mass (kg)
RCS (m²)

Purposes: comms

External: N2YO · Heavens-Above · Gunter

§ Orbital elements

Epoch: 2026-05-25T04:21:16.899840Z

Period
94.27 min
Inclination
43.0032°
Eccentricity
0.0000758
Mean motion
15.27575258 rev/d
Perigee alt
482.5 km
Apogee alt
483.6 km
Semi-major
6,861.2 km
B*
2.9931e-5
RAAN
67.5404°
Arg perigee
248.4712°
Mean anomaly
111.6059°
Rev number
11,651

§ Raw data

STARLINK-318041 59641U 24082L   26145.18144560  .00000562  00000+0  29931-4 0  99982 59641  43.0032  67.5404 0000758 248.4712 111.6059 15.27575258116517

JSON: /api/v1/satellites/59641 · /tle

For live sub-satellite position, see the globe view (requires WebGL).

§ Visibility from observer

Set your observer location to see the next 7 days of passes ≥ 10°. The values pass through the URL so the page stays shareable.

No JS? Fill the form by hand. The geolocation button needs JavaScript.